Location: Serin Observatory
(40.5200°N, 74.4500°W)
Time: 22:52:27
(UTC+00:00)

SL-8 R/B - Visible Passes

Search period start: 19 April 2014 00:00
Search period end: 29 April 2014 00:00
Orbit: 659 x 671 km, 48.4° (Epoch: 19 April)

Date Brightness Start Highest point End Pass type
(mag) Time Alt. Az. Time Alt. Az. Time Alt. Az.
19 Apr 3.8 01:04:26 10° SW 01:09:06 52° SE 01:12:41 17° ENE visible
19 Apr 4.9 02:47:08 10° W 02:50:49 41° NW 02:50:49 41° NW visible
19 Apr 5.4 08:04:10 20° SSE 08:04:10 20° SSE 08:05:44 10° SSE visible
20 Apr 3.8 01:36:07 10° WSW 01:40:57 77° NNW 01:44:30 18° NE visible
20 Apr 5.6 03:19:39 10° WNW 03:22:36 28° NW 03:22:36 28° NW visible
21 Apr 3.8 00:25:35 10° SW 00:30:18 57° SE 00:35:03 10° ENE visible
21 Apr 4.7 02:08:25 10° W 02:13:02 45° NNW 02:15:49 22° NE visible
21 Apr 6.1 03:52:06 10° WNW 03:53:53 20° NW 03:53:53 20° NW visible
22 Apr 4.0 00:57:21 10° WSW 01:02:10 72° NNW 01:07:01 10° ENE visible
22 Apr 5.2 02:40:56 10° WNW 02:45:20 33° N 02:46:44 28° NNE visible
22 Apr 6.5 04:24:17 10° NW 04:24:48 13° NW 04:24:48 13° NW visible
23 Apr 4.8 01:29:41 10° W 01:34:17 43° NNW 01:38:54 10° NE visible
23 Apr 5.3 03:13:21 10° WNW 03:17:25 32° N 03:17:25 32° N visible
24 Apr 4.1 00:18:35 10° WSW 00:23:23 67° NNW 00:28:12 10° ENE visible
24 Apr 5.3 02:02:12 10° WNW 02:06:35 33° N 02:09:54 16° NE visible
24 Apr 5.7 03:45:30 10° NW 03:47:56 26° NW 03:47:56 26° NW visible
25 Apr 4.9 00:50:57 10° W 00:55:31 41° NNW 01:00:06 10° NE visible
25 Apr 5.2 02:34:36 10° WNW 02:38:57 32° N 02:40:20 27° NE visible
25 Apr 6.3 04:17:25 10° NW 04:18:21 16° NW 04:18:21 16° NW visible
26 Apr 5.3 01:23:28 10° WNW 01:27:49 32° N 01:32:11 10° ENE visible
26 Apr 5.0 03:06:42 10° NW 03:10:41 38° N 03:10:41 38° N visible
27 Apr 5.0 00:12:12 10° W 00:16:44 40° NNW 00:21:18 10° NE visible
27 Apr 5.2 01:55:49 10° WNW 02:00:11 32° N 02:02:58 19° ENE visible
27 Apr 5.5 03:38:36 10° WNW 03:40:59 29° NW 03:40:59 29° NW visible
28 Apr 5.3 00:44:43 10° WNW 00:49:03 32° N 00:53:24 10° ENE visible
28 Apr 4.6 02:27:54 10° NW 02:32:29 41° NNE 02:33:16 38° NE visible
28 Apr 6.3 04:10:31 10° WNW 04:11:17 15° WNW 04:11:17 15° WNW visible
